This is the latest recevied weather packets stored in our database for station/object N6DZK. If no packets are shown the sender has not sent any weather packets the latest 10 day(s).
| Time | Temp. | Humidity | Pressure | Rain* | Wind** | Luminosity | Snow |
|---|---|---|---|---|---|---|---|
| 1777320066 | 18.89° C | 43% | 1017.2 hPa | 0 mm | - | 785 W/m² | - |
| 1777319763 | 17.78° C | 46% | 1017.4 hPa | 0 mm | - | 565 W/m² | - |
| 1777319460 | 18.33° C | 47% | 1017.4 hPa | 0 mm | - | 415 W/m² | - |
| 1777319157 | 18.33° C | 48% | 1017.3 hPa | 0 mm | - | 386 W/m² | - |
| 1777318854 | 18.33° C | 46% | 1017.3 hPa | 0 mm | - | 364 W/m² | - |
| 1777318550 | 19.44° C | 44% | 1017.6 hPa | 0 mm | - | 428 W/m² | - |
| 1777318247 | 19.44° C | 44% | 1017.3 hPa | 0 mm | - | 1289 W/m² | - |
| 1777317938 | 18.89° C | 47% | 1017.5 hPa | 0 mm | - | 1322 W/m² | - |
| 1777317635 | 18.89° C | 45% | 1017.4 hPa | 0 mm | - | 1114 W/m² | - |
| 1777317333 | 17.78° C | 49% | 1017.4 hPa | 0 mm | - | 1206 W/m² | - |
| 1777317033 | 17.22° C | 51% | 1017.5 hPa | 0 mm | - | 389 W/m² | - |
| 1777316731 | 17.78° C | 51% | 1017.4 hPa | 0 mm | - | 389 W/m² | - |
| 1777316427 | 17.78° C | 51% | 1017.4 hPa | 0 mm | - | 595 W/m² | - |
| 1777316124 | 17.78° C | 45% | 1017.4 hPa | 0 mm | - | 370 W/m² | - |
| 1777315823 | 18.33° C | 49% | 1017.4 hPa | 0 mm | - | 829 W/m² | - |
| 1777315521 | 17.78° C | 49% | 1017.5 hPa | 0 mm | - | 1018 W/m² | - |
| 1777315218 | 17.78° C | 52% | 1017.6 hPa | 0 mm | - | 389 W/m² | - |
| 1777314915 | 18.33° C | 49% | 1017.3 hPa | 0 mm | - | 386 W/m² | - |
| 1777314611 | 18.33° C | 51% | 1017.4 hPa | 0 mm | - | 1014 W/m² | - |
| 1777314308 | 18.33° C | 48% | 1017.2 hPa | 0 mm | - | 638 W/m² | - |
| 1777314005 | 18.33° C | 50% | 1017.4 hPa | 0 mm | - | 1035 W/m² | - |
| 1777313702 | 17.78° C | 53% | 1017.3 hPa | 0 mm | - | 557 W/m² | - |
| 1777313400 | 17.22° C | 57% | 1017.6 hPa | 0 mm | - | 1104 W/m² | - |
| 1777313096 | 16.67° C | 54% | 1017.5 hPa | 0 mm | - | 781 W/m² | - |
| 1777312792 | 16.11° C | 57% | 1017.6 hPa | 0 mm | - | 709 W/m² | - |
* Rain latest hour (hover to see other rain measurements)
** Current wind speed in m/s (hover to see current wind gust speed)